Satellite-Ground Cal/Val Site Overpasses Predictions

Prediction of Satellite NPP Overpassing Cal/Val Site: Antarctic Dome C

Ground Cal/Val Site Location: Latitude: -75.10, Longitude: 123.35; Satellite-Ground Site NADIR distance within 100 km.

Table of predicted overpasses for the next 14.0 days since TLE Epoch: 10/2/2015
Interval Starting Time Ending Time Minimum Distance Time Minimum Distance (km)
1 10/02/2015 14:51:38 10/02/2015 14:52:06 10/02/2015 14:51:52 20.34
2 10/04/2015 07:34:26 10/04/2015 07:34:55 10/04/2015 07:34:41 3.07
3 10/07/2015 14:57:51 10/07/2015 14:58:20 10/07/2015 14:58:05 16.58
4 10/08/2015 14:39:10 10/08/2015 14:39:22 10/08/2015 14:39:16 90.59
5 10/09/2015 07:40:41 10/09/2015 07:41:07 10/09/2015 07:40:54 38.96
6 10/10/2015 07:21:54 10/10/2015 07:22:14 10/10/2015 07:22:04 71.06
7 10/12/2015 15:04:07 10/12/2015 15:04:32 10/12/2015 15:04:20 53.63
8 10/13/2015 14:45:17 10/13/2015 14:45:41 10/13/2015 14:45:29 55.47
9 10/14/2015 07:46:58 10/14/2015 07:47:17 10/14/2015 07:47:08 74.45
